Location: Newark
(49.1000°N, 0.4667°W)
Time: 18:59:22
(UTC+00:00)

XW-2D - Visible Passes

Search period start: 21 October 2021 00:00
Search period end: 31 October 2021 00:00
Orbit: 503 x 524 km, 97.5° (Epoch: 21 October)

Date Brightness Start Highest point End Pass type
(mag) Time Alt. Az. Time Alt. Az. Time Alt. Az.
22 Oct ? 18:22:59 10° WSW 18:24:46 13° W 18:26:33 10° WNW visible
23 Oct ? 05:47:44 10° NNE 05:51:19 45° E 05:54:54 10° S visible
23 Oct ? 18:06:26 10° SW 18:09:07 19° W 18:11:48 10° NW visible
24 Oct ? 05:32:25 10° NNE 05:35:46 30° E 05:39:04 10° SSE visible
24 Oct ? 17:50:18 10° SSW 17:53:29 27° W 17:56:42 10° NW visible
25 Oct ? 05:17:15 10° NE 05:20:09 21° E 05:23:01 10° SE visible
25 Oct ? 17:34:24 10° SSW 17:37:54 39° W 17:41:26 10° NNW visible
26 Oct ? 05:02:21 10° NE 05:04:30 15° E 05:06:39 10° SE visible
26 Oct ? 17:18:40 10° S 17:22:21 60° WSW 17:26:02 10° NNW visible
28 Oct ? 06:04:05 10° NNE 06:07:49 71° ESE 06:11:31 10° S visible
28 Oct ? 18:24:02 10° WSW 18:25:42 13° W 18:27:23 10° WNW visible
29 Oct ? 05:48:38 10° NNE 05:52:15 46° E 05:55:51 10° S visible
29 Oct ? 18:07:25 10° SW 18:10:02 18° W 18:12:40 10° NW visible
30 Oct ? 05:33:18 10° NNE 05:36:40 31° E 05:40:01 10° SSE visible
30 Oct ? 17:51:14 10° SSW 17:54:23 26° W 17:57:33 10° NW visible
